Weather History for Long Beach, CA

Change the Weather History Date:

Friday, December 7, 2012

  Actual Average Record
Temperature  
Mean Temperature 60 °F 57 °F  
Max Temperature 65 °F 67 °F 83 °F (1990)
Min Temperature 55 °F 46 °F 31 °F (1960)
Degree Days  
Heating Degree Days 5 8  
Month to date heating degree days 22 55  
Since 1 July heating degree days 99 204  
Cooling Degree Days 0 0  
Month to date cooling degree days 0 0  
Year to date cooling degree days 1383 1125  
Growing Degree Days 10 (Base 50)    
Moisture  
Dew Point 55 °F    
Average Humidity 87    
Maximum Humidity 100    
Minimum Humidity 73    
Precipitation  
Precipitation 0.00 in 0.05 in 3.05 in (1992)
Month to date precipitation 0.66 0.35  
Year to date precipitation 6.47 10.66  
Since 1 July precipitation 2.06 2.22  
Sea Level Pressure  
Sea Level Pressure 29.94 in    
Wind  
Wind Speed 1 mph (South)    
Max Wind Speed 7 mph    
Max Gust Speed 9 mph    
Visibility 2 miles    
Events Fog    
T = Trace of Precipitation, MM = Missing Value Source: NWS Daily Summary

Daily Weather History Graph

Daily Weather History Graph

Search for Another Location

Airport:

Trip Planner

Search our weather history database for the weather conditions in past years. The results will help you decide how hot, cold, wet, or windy it might be!

Date:

Astronomy

Dec. 07, 2012 Rise Set
Actual Time 6:44 AM PST 4:43 PM PST
Civil Twilight 6:17 AM PST 5:11 PM PST
Nautical Twilight 5:46 AM PST 5:42 PM PST
Astronomical Twilight 5:15 AM PST 6:12 PM PST
Moon 12:24 AM PST (12/7) 12:29 PM PST (12/7)
Length of Visible Light 10h 53m
Length of Day
9h 58m
Last Quarter, 37% of the Moon is Illuminated
Dec 7
Last Quarter
Dec 13
New
Dec 19
First Quarter
Dec 28
Full
Jan 4
Last Quarter

Hourly Weather History & Observations

Time (PST) Temp. Dew Point Humidity Pressure Visibility Wind Dir Wind Speed Gust Speed Precip Events Conditions
12:04 AM 55.4 °F 53.6 °F 94% 29.93 in 3.0 mi Calm Calm - N/A   Overcast
12:18 AM 55.4 °F 53.6 °F 94% 29.93 in 3.0 mi Calm Calm - N/A   Overcast
12:28 AM 55.4 °F 53.6 °F 94% 29.93 in 3.0 mi Calm Calm - N/A   Overcast
12:36 AM 55.4 °F 51.8 °F 88% 29.93 in 3.0 mi Calm Calm - N/A   Overcast
12:53 AM 55.9 °F 53.1 °F 90% 29.93 in 4.0 mi Calm Calm - N/A   Overcast
1:05 AM 55.4 °F 53.6 °F 94% 29.93 in 3.0 mi Calm Calm - N/A   Overcast
1:30 AM 57.2 °F 53.6 °F 88% 29.92 in 2.5 mi ESE 3.5 mph - N/A   Overcast
1:43 AM 57.2 °F 55.4 °F 94% 29.93 in 1.0 mi Calm Calm - N/A   Overcast
1:51 AM 57.2 °F 55.4 °F 94% 29.92 in 0.5 mi Calm Calm - N/A Fog Fog
1:53 AM 57.0 °F 55.0 °F 93% 29.92 in 0.5 mi Calm Calm - N/A Fog Fog
2:01 AM 57.2 °F 55.4 °F 94% 29.93 in 0.2 mi Calm Calm - N/A Fog Fog
2:53 AM 57.0 °F 55.9 °F 96% 29.92 in 0.2 mi Calm Calm - N/A Fog Fog
3:53 AM 57.0 °F 55.0 °F 93% 29.92 in 0.2 mi SW 3.5 mph - N/A Fog Fog
4:50 AM 55.4 °F 55.4 °F 100% 29.93 in 0.2 mi Calm Calm - N/A Fog Fog
4:53 AM 55.9 °F 55.9 °F 100% 29.93 in 0.2 mi Calm Calm - N/A Fog Fog
5:16 AM 57.2 °F 55.4 °F 94% 29.92 in 0.5 mi Calm Calm - N/A Fog Fog
5:53 AM 57.0 °F 55.0 °F 93% 29.94 in 0.2 mi Calm Calm - N/A Fog Fog
6:00 AM 55.4 °F 55.4 °F 100% 29.94 in 0.5 mi Calm Calm - N/A Fog Fog
6:18 AM 55.4 °F 55.4 °F 100% 29.94 in 0.2 mi Calm Calm - N/A Fog Fog
6:29 AM 55.4 °F 53.6 °F 94% 29.94 in 0.5 mi East 4.6 mph - N/A Fog Fog
6:41 AM 55.4 °F 55.4 °F 100% 29.95 in 1.2 mi Calm Calm - N/A   Overcast
6:53 AM 55.9 °F 54.0 °F 93% 29.95 in 1.0 mi East 3.5 mph - N/A   Overcast
7:53 AM 57.0 °F 55.0 °F 93% 29.96 in 0.8 mi Calm Calm - N/A   Overcast
8:35 AM 57.2 °F 55.4 °F 94% 29.97 in 1.2 mi Calm Calm - N/A   Overcast
8:53 AM 57.0 °F 55.9 °F 96% 29.97 in 1.0 mi Calm Calm - N/A   Overcast
9:02 AM 57.2 °F 55.4 °F 94% 29.97 in 1.0 mi Calm Calm - N/A   Overcast
9:53 AM 59.0 °F 55.9 °F 90% 29.99 in 1.0 mi Calm Calm - N/A   Overcast
10:00 AM 57.2 °F 55.4 °F 94% 29.99 in 2.0 mi Calm Calm - N/A   Overcast
10:35 AM 59.0 °F 55.4 °F 88% 29.98 in 2.0 mi Calm Calm - N/A   Overcast
10:53 AM 60.1 °F 55.9 °F 86% 29.98 in 2.5 mi Calm Calm - N/A   Overcast
11:28 AM 62.6 °F 55.4 °F 77% 29.97 in 2.5 mi Calm Calm - N/A   Haze
11:33 AM 62.6 °F 55.4 °F 77% 29.97 in 3.0 mi Calm Calm - N/A   Haze
11:53 AM 63.0 °F 55.0 °F 75% 29.96 in 3.0 mi East 4.6 mph - N/A   Haze
12:39 PM 64.4 °F 55.4 °F 73% 29.94 in 2.5 mi South 4.6 mph - N/A   Haze
12:53 PM 64.0 °F 55.9 °F 75% 29.94 in 3.0 mi Calm Calm - N/A   Haze
1:18 PM 64.4 °F 55.4 °F 73% 29.94 in 1.8 mi Variable 4.6 mph - N/A   Haze
1:26 PM 64.4 °F 55.4 °F 73% 29.93 in 1.8 mi South 5.8 mph - N/A   Haze
1:53 PM 63.0 °F 55.9 °F 78% 29.92 in 2.0 mi South 5.8 mph - N/A   Haze
2:13 PM 62.6 °F 55.4 °F 77% 29.92 in 2.0 mi South 4.6 mph - N/A   Haze
2:53 PM 64.0 °F 55.9 °F 75% 29.92 in 2.5 mi Calm Calm - N/A   Haze
3:53 PM 62.1 °F 55.0 °F 78% 29.91 in 2.5 mi South 4.6 mph - N/A   Haze
4:53 PM 60.8 °F 55.4 °F 82% 29.92 in 2.5 mi SSW 4.6 mph - N/A   Haze
5:53 PM 61.0 °F 55.9 °F 83% 29.92 in 2.5 mi Calm Calm - N/A   Haze
6:53 PM 60.1 °F 55.0 °F 83% 29.93 in 2.5 mi NW 3.5 mph - N/A   Haze
7:53 PM 59.0 °F 55.4 °F 88% 29.94 in 2.5 mi Calm Calm - N/A   Clear
8:53 PM 57.9 °F 54.0 °F 87% 29.95 in 2.5 mi Calm Calm - N/A   Clear
9:00 PM 57.2 °F 53.6 °F 88% 29.94 in 3.0 mi Calm Calm - N/A   Clear
9:19 PM 57.2 °F 53.6 °F 88% 29.93 in 2.5 mi Calm Calm - N/A   Clear
9:43 PM 55.4 °F 53.6 °F 94% 29.93 in 3.0 mi WNW 3.5 mph - N/A   Clear
9:53 PM 57.0 °F 53.1 °F 87% 29.94 in 3.0 mi Calm Calm - N/A   Clear
10:06 PM 55.4 °F 53.6 °F 94% 29.93 in 3.0 mi Calm Calm - N/A   Clear
10:53 PM 55.9 °F 53.1 °F 90% 29.94 in 3.0 mi Calm Calm - N/A   Clear
11:00 PM 55.4 °F 53.6 °F 94% 29.93 in 2.0 mi Calm Calm - N/A   Clear
11:53 PM 55.9 °F 53.1 °F 90% 29.93 in 2.5 mi Calm Calm - N/A   Partly Cloudy